Left ArrowRight Arrow

-33.8178, 151.00348

Hourly Observations for January 15, 2016

Temp ( °F °C ) Dew Point ( °F °C ) Humidity (%) Winds ( mph kmh ) Pressure ( in mb ) Visibility ( mi km ) Precip ( " mm )
12:00 am 00:00 Mostly Cloudy with Rain 64 18 61 16 88 88 S 31 50 30.12 1020 6 9 N/A
12:30 am 00:30 Mostly Cloudy with Rain 63 17 61 16 94 94 S 24 39 30.12 1020 6 9 N/A
1:00 am 01:00 Mostly Cloudy with Rain 63 17 61 16 94 94 S 28 44 30.12 1020 30 48 N/A
1:30 am 01:30 Mostly Cloudy with Rain 63 17 59 15 88 88 S 28 44 30.12 1020 30 48 N/A
2:00 am 02:00 Mostly Cloudy with Rain 63 17 61 16 94 94 SSW 23 37 30.12 1020 6 9 N/A
2:30 am 02:30 Mostly Cloudy with Rain 63 17 61 16 94 94 SSW 18 30 30.12 1020 30 48 N/A
2:34 am 02:34 Mostly Cloudy with Rain 63 17 61 16 94 94 SSW 20 31 30.12 1020 30 48 N/A
3:00 am 03:00 Mostly Cloudy with Rain 61 16 61 16 100 100 SSW 18 30 30.12 1020 30 48 N/A
3:06 am 03:06 Mostly Cloudy with Rain 63 17 61 16 94 94 SSW 18 30 30.12 1020 30 48 N/A
3:10 am 03:10 Mostly Cloudy with Rain 63 17 63 17 100 100 SSW 20 31 30.12 1020 30 48 N/A
3:30 am 03:30 Mostly Cloudy with Rain 63 17 61 16 94 94 S 22 35 30.09 1019 30 48 N/A
4:00 am 04:00 Mostly Cloudy with Rain 61 16 61 16 100 100 S 31 50 30.09 1019 30 48 N/A
4:30 am 04:30 Mostly Cloudy with Rain 61 16 57 14 88 88 S 28 44 30.12 1020 30 48 N/A
5:00 am 05:00 Mostly Cloudy with Rain 61 16 57 14 88 88 S 28 44 30.12 1020 30 48 N/A
5:25 am 05:25 Mostly Cloudy with Rain 61 16 59 15 94 94 S 28 44 30.15 1021 30 48 N/A
5:30 am 05:30 Mostly Cloudy with Rain 61 16 59 15 94 94 S 28 44 30.15 1021 30 48 N/A
6:00 am 06:00 Mostly Cloudy with Rain 59 15 59 15 100 100 S 25 41 30.15 1021 30 48 N/A
6:30 am 06:30 Mostly Cloudy with Rain 59 15 57 14 94 94 S 23 37 30.18 1022 30 48 N/A
6:38 am 06:38 Mostly Cloudy with Rain 59 15 57 14 94 94 S 21 33 30.18 1022 30 48 N/A
7:00 am 07:00 Mostly Cloudy with Rain 59 15 57 14 94 94 S 20 31 30.18 1022 5 8 N/A
7:30 am 07:30 Mostly Cloudy with Rain 61 16 55 13 83 83 SSW 22 35 30.21 1023 30 48 N/A
7:45 am 07:45 Mostly Cloudy with Rain 59 15 57 14 94 94 SSW 18 30 30.24 1024 30 48 N/A
8:00 am 08:00 Mostly Cloudy with Rain 57 14 55 13 94 94 SSW 16 26 30.24 1024 30 48 N/A
8:30 am 08:30 Mostly Cloudy with Rain 59 15 57 14 94 94 SW 15 24 30.24 1024 30 48 N/A
9:00 am 09:00 Mostly Cloudy with Light Rain 59 15 55 13 88 88 WSW 12 19 30.24 1024 30 48 N/A
9:30 am 09:30 Mostly Cloudy with Light Rain 59 15 55 13 88 88 WSW 14 22 30.24 1024 30 48 N/A
10:00 am 10:00 Mostly Cloudy with Light Rain 59 15 55 13 88 88 WSW 12 19 30.24 1024 3 5 N/A
11:00 am 11:00 Mostly Cloudy with Showers 63 17 55 13 77 77 SSW 22 35 30.24 1024 3 5 N/A
11:30 am 11:30 Mostly Cloudy with Showers 64 18 55 13 73 73 SSW 22 35 30.24 1024 3 5 N/A
12:00 pm 12:00 Mostly Cloudy with Showers 64 18 54 12 68 68 SSW 22 35 30.24 1024 3 5 N/A
12:30 pm 12:30 Mostly Cloudy with Showers 66 19 55 13 68 68 SSW 26 43 30.24 1024 3 5 N/A
1:00 pm 13:00 Mostly Cloudy with Showers 66 19 57 14 73 73 S 29 46 30.24 1024 3 5 N/A
1:23 pm 13:23 Mostly Cloudy with Showers 68 20 55 13 64 64 S 30 48 30.21 1023 3 5 N/A
1:30 pm 13:30 Mostly Cloudy with Showers 68 20 57 14 69 69 S 30 48 30.21 1023 3 5 N/A
2:00 pm 14:00 Mostly Cloudy with Showers 68 20 59 15 73 73 S 26 43 30.21 1023 3 5 N/A
2:30 pm 14:30 Mostly Cloudy with Showers 64 18 61 16 88 88 S 26 43 30.24 1024 3 5 N/A
3:00 pm 15:00 Mostly Cloudy with Showers 66 19 59 15 78 78 SSE 24 39 30.24 1024 3 5 N/A
3:09 pm 15:09 Mostly Cloudy with Heavy Showers 64 18 63 17 94 94 S 26 43 30.24 1024 3 5 N/A
3:14 pm 15:14 Mostly Cloudy with Showers 63 17 61 16 94 94 S 25 41 30.24 1024 3 5 N/A
3:21 pm 15:21 Mostly Cloudy with Showers 64 18 59 15 83 83 S 22 35 30.24 1024 3 5 N/A
3:30 pm 15:30 Mostly Cloudy with Showers 66 19 59 15 78 78 S 21 33 30.24 1024 3 5 N/A
4:00 pm 16:00 Mostly Cloudy with Showers 66 19 61 16 83 83 SSW 23 37 30.24 1024 3 5 N/A
4:14 pm 16:14 Mostly Cloudy with Heavy Showers 64 18 61 16 88 88 S 22 35 30.24 1024 3 5 N/A
4:19 pm 16:19 Mostly Cloudy with Showers 63 17 61 16 94 94 S 21 33 30.24 1024 3 5 N/A
4:30 pm 16:30 Mostly Cloudy with Showers 64 18 61 16 88 88 S 21 33 30.24 1024 3 5 N/A
4:36 pm 16:36 Mostly Cloudy with Showers 64 18 61 16 88 88 S 21 33 30.24 1024 3 5 N/A
5:00 pm 17:00 Mostly Cloudy with Showers 63 17 61 16 94 94 S 26 43 30.24 1024 3 5 N/A
5:30 pm 17:30 Mostly Cloudy with Showers 68 20 57 14 69 69 S 25 41 30.24 1024 3 5 N/A
6:00 pm 18:00 Mostly Cloudy with Showers Nearby 68 20 55 13 64 64 S 26 43 30.24 1024 30 48 N/A
6:05 pm 18:05 Mostly Cloudy with Showers Nearby 66 19 57 14 73 73 S 28 44 30.24 1024 30 48 N/A
6:30 pm 18:30 Mostly Cloudy 68 20 55 13 64 64 S 23 37 30.27 1025 30 48 N/A
7:00 pm 19:00 Mostly Cloudy 66 19 57 14 73 73 S 23 37 30.27 1025 30 48 N/A
7:30 pm 19:30 Partly Cloudy 68 20 52 11 56 56 S 24 39 30.27 1025 30 48 N/A
8:00 pm 20:00 Mostly Cloudy 68 20 54 12 60 60 S 24 39 30.30 1026 30 48 N/A
8:30 pm 20:30 Partly Cloudy 68 20 54 12 60 60 S 23 37 30.30 1026 30 48 N/A
9:00 pm 21:00 Partly Cloudy 66 19 52 11 60 60 S 23 37 30.30 1026 30 48 N/A
9:30 pm 21:30 Mostly Clear 68 20 52 11 56 56 S 24 39 30.33 1027 30 48 N/A
10:00 pm 22:00 Partly Cloudy 68 20 52 11 56 56 S 21 33 30.33 1027 30 48 N/A
10:30 pm 22:30 Partly Cloudy 68 20 54 12 60 60 S 24 39 30.33 1027 30 48 N/A
11:00 pm 23:00 Mostly Cloudy 68 20 54 12 60 60 S 22 35 30.33 1027 30 48 N/A
11:30 pm 23:30 Mostly Cloudy 68 20 54 12 60 60 S 22 35 30.33 1027 30 48 N/A

Powered by Vaisala Xweather